Waarnemingen

Advertentie
Mijn weer
Granada/Aeropuerto, Spanje (8419): temperatuur & dauwpunt: 15.10.2019 12:00:00 - 21.10.2019 12:00:00 (CEST)Granada/Aeropuerto, Spanje (8419): windsnelheid: 15.10.2019 12:00:00 - 21.10.2019 12:00:00 (CEST)Granada/Aeropuerto, Spanje (8419): windrichting: 15.10.2019 12:00:00 - 21.10.2019 12:00:00 (CEST)Granada/Aeropuerto, Spanje (8419): luchtdruk: 15.10.2019 12:00:00 - 21.10.2019 12:00:00 (CEST)Granada/Aeropuerto, Spanje (8419): zicht: 15.10.2019 12:00:00 - 21.10.2019 12:00:00 (CEST)
Datum & Tijd tt [°C] td [°C] ff [km/u] ff [kn] dd ppp [hPa] vv [km]
21.10.2019 12:00:00 12,5 7,0 0 0 N 1018,2 15
21.10.2019 11:00:00 9,8 6,9 0 0 N 1019,0 20
21.10.2019 10:00:00 6,8 5,9 2 1 ZZO 1019,7 16
21.10.2019 09:00:00 3,6 3,1 4 2 W 1019,9 15
21.10.2019 08:00:00 3,4 2,8 5 3 ZW 1019,6 15
21.10.2019 07:00:00 3,3 2,6 0 0 N 1019,4 10
21.10.2019 06:00:00 3,8 3,2 0 0 N 1019,0 23
21.10.2019 05:00:00 4,5 3,8 2 1 ZZW 1018,9 26
21.10.2019 04:00:00 4,7 3,9 0 0 N 1019,1 25
21.10.2019 03:00:00 5,6 4,8 0 0 N 1019,0 27
21.10.2019 02:00:00 6,0 5,1 4 2 ZO 1018,8 25
21.10.2019 01:00:00 6,8 5,7 4 2 WZW 1018,4 30
21.10.2019 00:00:00 7,1 5,7 4 2 ZW 1018,2 30
20.10.2019 23:00:00 8,5 6,0 0 0 N 1017,9 25
20.10.2019 22:00:00 10,0 6,3 4 2 ZZO 1016,9 22
20.10.2019 21:00:00 10,6 6,3 4 2 ZZW 1016,4 30
20.10.2019 20:00:00 11,9 6,6 15 8 WZW 1015,7 30
20.10.2019 19:00:00 14,9 5,4 13 7 W 1014,2 30
20.10.2019 18:00:00 16,2 4,9 16 9 W 1013,6 30
20.10.2019 17:00:00 16,9 7,0 21 11 W 1012,9 25
20.10.2019 16:00:00 15,9 6,6 16 9 W 1012,9 26
20.10.2019 15:00:00 16,2 8,2 15 8 WNW 1012,7 -
20.10.2019 14:00:00 15,2 7,7 16 9 W 1013,0 22
20.10.2019 13:00:00 15,3 7,3 16 9 WNW 1013,0 29
20.10.2019 12:00:00 13,7 8,6 15 8 W 1013,5 30
20.10.2019 11:00:00 12,1 9,4 4 2 WZW 1013,5 12
20.10.2019 10:00:00 11,7 9,8 9 5 WZW 1012,8 30
20.10.2019 09:00:00 11,0 9,7 2 1 NNO 1012,0 10
20.10.2019 08:00:00 11,1 9,4 8 4 Z 1011,9 10
20.10.2019 07:00:00 11,8 10,2 4 2 OZO 1011,5 30
20.10.2019 06:00:00 12,2 10,1 8 4 ZZO 1011,7 30
20.10.2019 05:00:00 12,8 11,7 5 3 Z 1011,8 12
20.10.2019 04:00:00 12,8 11,9 22 12 W 1010,4 13
20.10.2019 03:00:00 14,0 12,7 24 13 W 1009,9 2,8
20.10.2019 02:00:00 17,8 12,7 11 6 OZO 1008,0 30
20.10.2019 01:00:00 18,2 12,7 13 7 Z 1008,5 12
20.10.2019 00:00:00 18,5 11,8 21 11 ZZW 1009,1 30
19.10.2019 23:00:00 16,1 10,7 8 4 ZZW 1009,7 30
19.10.2019 22:00:00 18,1 11,4 16 9 ZZW 1008,9 30
19.10.2019 21:00:00 19,0 11,6 16 9 ZZW 1008,6 30
19.10.2019 20:00:00 19,0 11,1 5 3 ZZW 1008,2 20
19.10.2019 19:00:00 21,3 10,7 13 7 W 1007,8 30
19.10.2019 18:00:00 22,3 10,8 16 9 W 1007,9 30
19.10.2019 17:00:00 22,8 10,9 18 10 W 1008,1 30
19.10.2019 16:00:00 23,9 11,1 18 10 W 1008,5 8
19.10.2019 15:00:00 23,2 12,0 24 13 W 1009,1 30
19.10.2019 14:00:00 22,6 13,2 18 10 W 1010,1 20
19.10.2019 13:00:00 21,2 13,1 5 3 NW 1011,3 19
19.10.2019 12:00:00 19,3 13,5 4 2 NW 1012,8 12
19.10.2019 11:00:00 16,4 13,1 0 0 N 1013,9 15
19.10.2019 10:00:00 13,9 11,9 4 2 N 1014,7 10
19.10.2019 09:00:00 13,4 11,6 5 3 ZO 1014,5 15
19.10.2019 08:00:00 12,6 11,2 0 0 N 1014,6 15
19.10.2019 07:00:00 12,3 11,2 4 2 NW 1014,6 15
19.10.2019 06:00:00 12,0 11,2 2 1 ZZW 1014,8 8
19.10.2019 05:00:00 10,8 9,7 0 0 N 1015,3 8
19.10.2019 04:00:00 12,0 11,1 0 0 N 1015,8 15
19.10.2019 03:00:00 13,3 12,0 0 0 N 1016,0 11
19.10.2019 02:00:00 14,3 12,3 8 4 ZZW 1016,1 15
19.10.2019 01:00:00 15,4 12,7 0 0 N 1016,4 30
19.10.2019 00:00:00 16,8 13,2 13 7 ZW 1016,3 30
18.10.2019 23:00:00 17,4 13,1 13 7 ZW 1016,1 30
18.10.2019 22:00:00 18,3 12,9 13 7 ZW 1015,5 30
18.10.2019 21:00:00 18,7 12,7 9 5 ZW 1015,2 24
18.10.2019 20:00:00 20,7 12,7 11 6 WZW 1014,5 30
18.10.2019 19:00:00 23,2 12,8 16 9 W 1014,0 30
18.10.2019 18:00:00 25,1 12,3 18 10 W 1013,8 30
18.10.2019 17:00:00 26,0 12,0 13 7 W 1013,9 30
18.10.2019 16:00:00 25,7 10,4 4 2 W 1014,5 30
18.10.2019 15:00:00 23,9 8,6 8 4 W 1015,9 30
18.10.2019 14:00:00 22,4 5,9 2 1 ZW 1017,4 28
18.10.2019 13:00:00 19,8 5,4 0 0 N 1019,0 30
18.10.2019 12:00:00 16,7 5,3 2 1 NW 1020,1 30
18.10.2019 11:00:00 14,5 5,6 0 0 N 1021,0 28
18.10.2019 10:00:00 9,8 4,6 0 0 N 1021,9 14
18.10.2019 09:00:00 5,9 2,7 0 0 N 1022,2 26
18.10.2019 08:00:00 5,9 2,9 0 0 N 1022,2 30
18.10.2019 07:00:00 6,3 3,1 0 0 N 1021,9 30
18.10.2019 06:00:00 7,9 3,9 4 2 WZW 1021,3 17
18.10.2019 05:00:00 7,3 3,3 4 2 ZW 1021,8 30
18.10.2019 04:00:00 8,1 3,2 0 0 N 1022,0 30
18.10.2019 03:00:00 8,7 3,2 0 0 N 1022,2 30
18.10.2019 02:00:00 9,2 3,2 0 0 N 1022,2 30
18.10.2019 01:00:00 11,1 3,9 0 0 N 1022,0 30
18.10.2019 00:00:00 13,1 3,7 0 0 N 1021,3 30
17.10.2019 23:00:00 14,7 3,5 9 5 ZW 1020,6 30
17.10.2019 22:00:00 15,8 3,9 11 6 ZW 1019,8 30
17.10.2019 21:00:00 16,7 4,0 11 6 W 1018,9 30
17.10.2019 20:00:00 19,0 4,3 9 5 W 1017,6 30
17.10.2019 19:00:00 22,9 4,4 15 8 W 1016,3 30
17.10.2019 18:00:00 24,4 3,1 13 7 W 1015,9 30
17.10.2019 17:00:00 24,3 2,5 9 5 W 1016,3 30
17.10.2019 16:00:00 23,5 3,6 4 2 WNW 1017,0 28
17.10.2019 15:00:00 22,5 2,8 4 2 NW 1017,6 30
17.10.2019 14:00:00 21,1 2,8 4 2 W 1018,9 25
17.10.2019 13:00:00 19,3 3,0 0 0 N 1020,2 15
17.10.2019 12:00:00 - - 0 0 N - 30
17.10.2019 11:00:00 11,8 3,1 4 2 W 1022,5 25
17.10.2019 10:00:00 7,8 2,7 4 2 WNW 1023,1 19
17.10.2019 09:00:00 4,0 0,5 0 0 N 1023,2 18
17.10.2019 08:00:00 3,7 0,0 0 0 N 1023,0 30
17.10.2019 07:00:00 4,3 0,3 0 0 N 1022,4 30
17.10.2019 06:00:00 4,8 0,4 5 3 ZZW 1021,9 30
17.10.2019 05:00:00 5,0 0,4 4 2 W 1022,3 30
17.10.2019 04:00:00 6,0 0,7 0 0 N 1022,2 30
17.10.2019 03:00:00 7,1 1,0 4 2 ZW 1022,1 28
17.10.2019 02:00:00 8,1 1,9 0 0 N 1021,5 25
17.10.2019 01:00:00 9,3 1,2 2 1 OZO 1021,5 30
17.10.2019 00:00:00 10,2 2,6 4 2 N 1021,6 29
16.10.2019 23:00:00 12,7 -0,6 11 6 ZW 1020,5 30
16.10.2019 22:00:00 14,1 -0,4 4 2 Z 1019,6 30
16.10.2019 21:00:00 15,0 1,6 9 5 ZW 1018,6 17
16.10.2019 20:00:00 17,5 1,6 8 4 ZW 1017,4 20
16.10.2019 19:00:00 22,7 1,1 4 2 ZW 1015,9 30
16.10.2019 18:00:00 23,9 -1,9 4 2 ZW 1015,8 30
16.10.2019 17:00:00 24,1 -3,3 4 2 W 1016,3 30
16.10.2019 16:00:00 23,3 -5,0 8 4 W 1017,1 30
16.10.2019 15:00:00 21,8 -9,5 5 3 WNW 1018,2 30
16.10.2019 14:00:00 20,7 1,5 0 0 N 1019,4 30
16.10.2019 13:00:00 17,4 4,3 2 1 WNW 1021,0 30
16.10.2019 12:00:00 14,8 4,2 0 0 N 1022,3 17
16.10.2019 11:00:00 11,0 4,0 0 0 N 1023,4 20
16.10.2019 10:00:00 6,7 3,4 0 0 N 1024,4 12
16.10.2019 09:00:00 3,6 1,6 0 0 N 1024,5 15
16.10.2019 08:00:00 3,0 1,0 0 0 N 1024,3 30
16.10.2019 07:00:00 3,7 1,4 0 0 N 1024,1 30
16.10.2019 06:00:00 4,5 1,5 0 0 N 1024,1 30
16.10.2019 05:00:00 4,3 1,3 5 3 WZW 1024,2 30
16.10.2019 04:00:00 5,1 1,9 5 3 ZZO 1024,1 30
16.10.2019 03:00:00 6,3 2,6 4 2 WZW 1024,1 30
16.10.2019 02:00:00 7,0 2,5 4 2 Z 1023,9 30
16.10.2019 01:00:00 8,9 3,2 2 1 ZW 1023,7 30
16.10.2019 00:00:00 9,6 3,6 0 0 N 1023,3 30
15.10.2019 23:00:00 11,1 4,1 5 3 ZW 1022,8 25
15.10.2019 22:00:00 12,3 4,5 5 3 ZW 1022,1 30
15.10.2019 21:00:00 14,0 4,8 13 7 ZW 1021,2 30
15.10.2019 20:00:00 15,4 4,7 11 6 W 1020,3 30
15.10.2019 19:00:00 18,7 4,7 18 10 W 1018,8 30
15.10.2019 18:00:00 20,2 3,3 13 7 W 1018,1 30
15.10.2019 17:00:00 20,0 3,2 13 7 WZW 1018,3 30
15.10.2019 16:00:00 20,2 3,1 4 2 WNW 1018,6 30
15.10.2019 15:00:00 19,8 3,8 4 2 ZW 1019,1 30
15.10.2019 14:00:00 18,7 4,5 4 2 W 1020,2 30
15.10.2019 13:00:00 17,0 5,1 8 4 WNW 1021,1 30
15.10.2019 12:00:00 15,6 6,2 2 1 WNW 1021,8 22

tt = temperatuur
td = dauwpunt
ff = windsnelheid
dd = windrichting
ppp = luchtdruk
vv = zicht

Weerstations in de omgeving